When you browse on this site, cookies collect data to enhance your experience and personalize the content and advertising you see.
Visit our Privacy Policy to learn more. By continuing to use the site, you agree to this use of cookies and data.
  • în România
  • Lista ţărilor
  • Pe 7 zile
  • Temperatura apei
  • Hartă satelitară
  • Meteo pe hartă
  • Widget-uri
  • user-avatar
    Intrare

    Meteo pe oră la Zmeyka

    Astăzi, 19 Martie, Marţi

    Timp Temperatura Precipitaţii Vânt Presiune Umiditate
    00:00 +5°C° 0 mm 1 m/s 738 mmHg 76%
    01:00 +5°C° 0 mm 1 m/s 738 mmHg 78%
    02:00 +5°C° 0 mm 1 m/s 738 mmHg 79%
    03:00 +5°C° 0 mm 1 m/s 738 mmHg 80%
    04:00 +4°C° 0 mm 1 m/s 738 mmHg 81%
    05:00 +4°C° 0 mm 1 m/s 738 mmHg 81%
    06:00 +4°C° 0 mm 1 m/s 738 mmHg 82%
    07:00 +5°C° 0 mm 1 m/s 738 mmHg 77%
    08:00 +5°C° 0 mm 2 m/s 738 mmHg 71%
    09:00 +6°C° 0 mm 2 m/s 738 mmHg 66%
    10:00 +8°C° 0 mm 3 m/s 737 mmHg 61%
    11:00 +9°C° 0 mm 3 m/s 737 mmHg 56%
    12:00 +10°C° 0 mm 4 m/s 737 mmHg 52%
    13:00 +11°C° 0 mm 4 m/s 737 mmHg 51%
    14:00 +11°C° 0 mm 4 m/s 737 mmHg 50%
    15:00 +12°C° 0 mm 4 m/s 737 mmHg 49%
    16:00 +11°C° 0 mm 4 m/s 737 mmHg 54%
    17:00 +10°C° 0 mm 4 m/s 737 mmHg 58%
    18:00 +8°C° 0 mm 4 m/s 737 mmHg 63%
    19:00 +7°C° 0 mm 4 m/s 737 mmHg 68%
    20:00 +8°C° 0 mm 3 m/s 737 mmHg 73%
    21:00 +7°C° 0 mm 3 m/s 737 mmHg 78%
    22:00 +5°C° 0 mm 3 m/s 737 mmHg 80%
    23:00 +5°C° 0 mm 3 m/s 737 mmHg 83%

    Mâine, 20 Martie, Miercuri

    Timp Temperatura Precipitaţii Vânt Presiune Umiditate
    00:00 +5°C° 0 mm 2 m/s 736 mmHg 85%
    01:00 +5°C° 0 mm 2 m/s 736 mmHg 86%
    02:00 +4°C° 0 mm 2 m/s 736 mmHg 87%
    03:00 +4°C° 0 mm 2 m/s 736 mmHg 89%
    04:00 +4°C° 0 mm 2 m/s 736 mmHg 89%
    05:00 +3°C° 0 mm 2 m/s 736 mmHg 89%
    06:00 +3°C° 0 mm 2 m/s 736 mmHg 89%
    07:00 +4°C° 0 mm 2 m/s 736 mmHg 82%
    08:00 +4°C° 0 mm 3 m/s 735 mmHg 76%
    09:00 +7°C° 0 mm 3 m/s 735 mmHg 70%
    10:00 +7°C° 0 mm 4 m/s 735 mmHg 65%
    11:00 +8°C° 0 mm 4 m/s 735 mmHg 60%
    12:00 +11°C° 0 mm 4 m/s 735 mmHg 55%
    13:00 +11°C° 0 mm 4 m/s 734 mmHg 54%
    14:00 +12°C° 0 mm 4 m/s 734 mmHg 52%
    15:00 +13°C° 0 mm 5 m/s 734 mmHg 50%
    16:00 +12°C° 0 mm 4 m/s 734 mmHg 53%
    17:00 +11°C° 0 mm 4 m/s 734 mmHg 56%
    18:00 +10°C° 0 mm 4 m/s 734 mmHg 60%
    19:00 +9°C° 0 mm 3 m/s 735 mmHg 64%
    20:00 +8°C° 0 mm 3 m/s 735 mmHg 69%
    21:00 +7°C° 0 mm 2 m/s 735 mmHg 73%
    22:00 +7°C° 0 mm 2 m/s 735 mmHg 75%
    23:00 +6°C° 0 mm 2 m/s 735 mmHg 77%

    Poimâine, 21 Martie, Joi

    Timp Temperatura Precipitaţii Vânt Presiune Umiditate
    00:00 +5°C° 0 mm 2 m/s 735 mmHg 79%
    01:00 +6°C° 0 mm 1 m/s 735 mmHg 79%
    02:00 +6°C° 0 mm 1 m/s 735 mmHg 80%
    03:00 +5°C° 0 mm 1 m/s 735 mmHg 81%
    04:00 +5°C° 0 mm 1 m/s 735 mmHg 80%
    05:00 +5°C° 0 mm 1 m/s 735 mmHg 80%
    06:00 +4°C° 0 mm 0 m/s 735 mmHg 80%
    07:00 +6°C° 0 mm 1 m/s 735 mmHg 74%
    08:00 +8°C° 0 mm 1 m/s 735 mmHg 68%
    09:00 +9°C° 0 mm 1 m/s 735 mmHg 62%
    10:00 +11°C° 0 mm 1 m/s 735 mmHg 58%
    11:00 +12°C° 0 mm 1 m/s 735 mmHg 55%
    12:00 +14°C° 0 mm 1 m/s 735 mmHg 51%
    13:00 +14°C° 0 mm 2 m/s 734 mmHg 49%
    14:00 +15°C° 0 mm 2 m/s 734 mmHg 48%
    15:00 +14°C° 0 mm 3 m/s 734 mmHg 46%
    16:00 +14°C° 0 mm 3 m/s 734 mmHg 49%
    17:00 +13°C° 0 mm 3 m/s 734 mmHg 52%
    18:00 +12°C° 0 mm 3 m/s 734 mmHg 54%
    19:00 +11°C° 0 mm 3 m/s 734 mmHg 57%
    20:00 +11°C° 0 mm 3 m/s 734 mmHg 61%
    21:00 +10°C° 0 mm 3 m/s 734 mmHg 64%
    22:00 +10°C° 0.1 mm 3 m/s 734 mmHg 66%
    23:00 +9°C° 0.1 mm 3 m/s 734 mmHg 69%

    22 Martie, Vineri

    Timp Temperatura Precipitaţii Vânt Presiune Umiditate
    00:00 +9°C° 0.1 mm 3 m/s 734 mmHg 71%
    01:00 +8°C° 0.5 mm 3 m/s 734 mmHg 74%
    02:00 +8°C° 0.5 mm 3 m/s 734 mmHg 77%
    03:00 +7°C° 0.5 mm 3 m/s 734 mmHg 80%
    04:00 +6°C° 0.7 mm 4 m/s 734 mmHg 78%
    05:00 +5°C° 0.7 mm 5 m/s 734 mmHg 75%
    06:00 +3°C° 0.7 mm 6 m/s 734 mmHg 73%
    07:00 +3°C° 0.1 mm 6 m/s 734 mmHg 71%
    08:00 +3°C° 0.1 mm 6 m/s 734 mmHg 69%
    09:00 +3°C° 0.1 mm 6 m/s 734 mmHg 66%
    10:00 +5°C° 0.3 mm 5 m/s 734 mmHg 65%
    11:00 +5°C° 0.3 mm 5 m/s 734 mmHg 64%
    12:00 +5°C° 0.3 mm 5 m/s 734 mmHg 63%
    13:00 +5°C° 0.2 mm 4 m/s 734 mmHg 62%
    14:00 +5°C° 0.2 mm 4 m/s 734 mmHg 62%
    15:00 +5°C° 0.2 mm 3 m/s 734 mmHg 61%
    16:00 +5°C° 0 mm 3 m/s 734 mmHg 62%
    17:00 +4°C° 0 mm 3 m/s 735 mmHg 63%
    18:00 +4°C° 0 mm 3 m/s 735 mmHg 64%
    19:00 +4°C° 0 mm 4 m/s 735 mmHg 65%
    20:00 +3°C° 0 mm 4 m/s 736 mmHg 66%
    21:00 +3°C° 0 mm 4 m/s 736 mmHg 67%
    22:00 +3°C° 0 mm 4 m/s 736 mmHg 70%
    23:00 +1°C° 0 mm 4 m/s 736 mmHg 73%

    23 Martie, Sâmbătă

    Timp Temperatura Precipitaţii Vânt Presiune Umiditate
    00:00 +1°C° 0 mm 4 m/s 736 mmHg 76%
    01:00 +2°C° 0 mm 3 m/s 736 mmHg 78%
    02:00 +1°C° 0 mm 3 m/s 736 mmHg 80%
    03:00 +1°C° 0 mm 3 m/s 736 mmHg 82%
    04:00 0°C° 0 mm 3 m/s 737 mmHg 81%
    05:00 0°C° 0 mm 3 m/s 737 mmHg 80%
    06:00 0°C° 0 mm 3 m/s 737 mmHg 78%
    07:00 +1°C° 0 mm 3 m/s 737 mmHg 72%
    08:00 +1°C° 0 mm 4 m/s 737 mmHg 65%
    09:00 +4°C° 0 mm 4 m/s 737 mmHg 59%
    10:00 +5°C° 0 mm 4 m/s 736 mmHg 54%
    11:00 +6°C° 0 mm 4 m/s 736 mmHg 48%
    12:00 +7°C° 0 mm 5 m/s 736 mmHg 43%
    13:00 +7°C° 0 mm 5 m/s 735 mmHg 43%
    14:00 +8°C° 0 mm 6 m/s 735 mmHg 42%
    15:00 +8°C° 0 mm 6 m/s 735 mmHg 42%
    16:00 +7°C° 0.1 mm 6 m/s 735 mmHg 49%
    17:00 +6°C° 0.1 mm 5 m/s 734 mmHg 56%
    18:00 +6°C° 0.1 mm 4 m/s 734 mmHg 63%
    19:00 +6°C° 0.5 mm 4 m/s 734 mmHg 66%
    20:00 +5°C° 0.5 mm 3 m/s 734 mmHg 69%
    21:00 +5°C° 0.5 mm 3 m/s 735 mmHg 71%
    22:00 +5°C° 0.1 mm 4 m/s 734 mmHg 73%
    23:00 +5°C° 0.1 mm 5 m/s 734 mmHg 74%

    24 Martie, Duminică

    Timp Temperatura Precipitaţii Vânt Presiune Umiditate
    00:00 +4°C° 0.1 mm 6 m/s 734 mmHg 76%
    01:00 +4°C° 0 mm 6 m/s 733 mmHg 75%
    02:00 +4°C° 0 mm 7 m/s 733 mmHg 74%
    03:00 +5°C° 0 mm 7 m/s 733 mmHg 74%
    04:00 +5°C° 0 mm 7 m/s 733 mmHg 73%
    05:00 +5°C° 0 mm 7 m/s 733 mmHg 72%
    06:00 +5°C° 0 mm 7 m/s 733 mmHg 71%
    07:00 +5°C° 0.1 mm 7 m/s 733 mmHg 68%
    08:00 +6°C° 0.1 mm 8 m/s 733 mmHg 65%
    09:00 +7°C° 0.1 mm 9 m/s 733 mmHg 62%
    10:00 +7°C° 0.1 mm 9 m/s 733 mmHg 58%
    11:00 +8°C° 0.1 mm 10 m/s 733 mmHg 54%
    12:00 +9°C° 0.1 mm 10 m/s 732 mmHg 50%
    13:00 +9°C° 0 mm 10 m/s 732 mmHg 53%
    14:00 +9°C° 0 mm 11 m/s 732 mmHg 55%
    15:00 +9°C° 0 mm 11 m/s 732 mmHg 58%
    16:00 +9°C° 0 mm 10 m/s 732 mmHg 61%
    17:00 +10°C° 0 mm 9 m/s 732 mmHg 65%
    18:00 +9°C° 0 mm 8 m/s 733 mmHg 68%
    19:00 +9°C° 0 mm 7 m/s 733 mmHg 71%
    20:00 +8°C° 0 mm 6 m/s 733 mmHg 75%
    21:00 +7°C° 0 mm 6 m/s 733 mmHg 78%
    22:00 +7°C° 0 mm 5 m/s 733 mmHg 78%
    23:00 +7°C° 0 mm 5 m/s 733 mmHg 78%
    Arată mai mult